Find Starlink 3918

NORAD ID: 52486 Int'l Des: 2022-049 Owner: SPXS Country: US Constellation: starlink operational
LEOCIRCULAR

当前视图

正在加载3D地球...

About Starlink 3918

Starlink 3918 (NORAD 52486) is a starlink constellation satellite (v1.5) launched May 6, 2022 by SPXS of US. It operates in LEO, CIRCULAR orbit with a mass of 297.00 kg.

关于 Starlink 3918

正在加载描述...

即将过境

Passes for default location (London). Set your location on the main map for personalized predictions.

高度历史

Loading altitude history...

两行轨道根数

1 52486U 22049AM 26195.53314269 -.00000292 00000-0 -26639-6 0 9995
2 52486 53.1594 209.4356 0001098 77.4718 282.6396 15.08832390231400
Epoch: Jul 14, 2026 • Age: 6 hours

当前状态

高度 540.0 km
远地点 / 近地点 N/A
速度 7.59 km/s
星下点 7.95°N, 175.08°E
发射日期 May 6, 2022
运行时间 4.1 years
类型 internet

技术详情

分类 Payload
质量 297.00 kg
干质量 220.00 kg
总质量 297.00 kg
长度 0.20 m
直径 2.80 m
跨度 9.00 m
形状 Box + pan
制造商 SPXS
平台类型 Starlink
阶段状态 In Orbit
所有者/国家 SPXS/US

Most Searched